| time (UTC) | temp C | wind direction | speed KPH | gust KPH | rain 1hr cm | rain 24hr cm | rain mn cm | humidity % | barometer mb |
| 20260507183223 | 13 | 126 | 3.2 | 11.3 | 0.00 | 0.94 | 0.94 | 69 | 1010.2 |
| 20260507182721 | 14 | 198 | 1.6 | 11.3 | 0.00 | 0.94 | 0.94 | 63 | 1010.4 |
| 20260507182440 | 13 | 151 | 1.6 | 4.8 | 0.00 | 0.94 | 0.94 | 69 | 1010.6 |
| 20260507181722 | 13 | 152 | 1.6 | 4.8 | 0.00 | 0.94 | 0.94 | 67 | 1010.4 |
| 20260507181223 | 13 | 218 | 1.6 | 4.8 | 0.00 | 0.94 | 0.94 | 73 | 1010.0 |
| 20260507180717 | 13 | 147 | 1.6 | 4.8 | 0.00 | 0.94 | 0.94 | 69 | 1010.2 |
| 20260507180210 | 13 | 120 | 1.6 | 4.8 | 0.00 | 0.94 | 0.94 | 75 | 1010.4 |
| 20260507175714 | 12 | 139 | 1.6 | 3.2 | 0.00 | 0.94 | 0.94 | 70 | 1010.4 |
| 20260507175158 | 12 | 117 | 0.0 | 3.2 | 0.00 | 0.94 | 0.94 | 69 | 1010.5 |
| 20260507174652 | 12 | 104 | 1.6 | 3.2 | 0.00 | 0.94 | 0.94 | 68 | 1010.8 |
| 20260507174407 | 12 | 103 | 1.6 | 4.8 | 0.00 | 0.94 | 0.94 | 69 | 1010.6 |
| 20260507173640 | 12 | 129 | 1.6 | 4.8 | 0.00 | 0.94 | 0.94 | 69 | 1010.4 |
| 20260507173355 | 13 | 104 | 1.6 | 3.2 | 0.00 | 0.94 | 0.94 | 72 | 1010.8 |
| 20260507172628 | 13 | 95 | 0.0 | 3.2 | 0.00 | 0.94 | 0.94 | 73 | 1010.9 |
| 20260507172123 | 12 | 163 | 0.0 | 4.8 | 0.00 | 0.94 | 0.94 | 72 | 1010.8 |
| 20260507171616 | 12 | 163 | 0.0 | 4.8 | 0.00 | 0.94 | 0.94 | 74 | 1010.9 |
| 20260507171330 | 12 | 169 | 1.6 | 4.8 | 0.00 | 0.94 | 0.94 | 73 | 1011.0 |
| 20260507170605 | 13 | 115 | 1.6 | 3.2 | 0.00 | 0.94 | 0.94 | 72 | 1011.0 |
| 20260507170058 | 12 | 107 | 0.0 | 3.2 | 0.00 | 0.94 | 0.94 | 80 | 1010.9 |
| 20260507165552 | 12 | 40 | 0.0 | 1.6 | 0.00 | 0.94 | 0.94 | 78 | 1011.4 |
| 20260507165046 | 12 | 30 | 0.0 | 3.2 | 0.00 | 0.94 | 0.94 | 78 | 1011.6 |
| 20260507164541 | 12 | 30 | 0.0 | 3.2 | 0.00 | 0.94 | 0.94 | 82 | 1011.9 |
| 20260507164034 | 12 | 71 | 0.0 | 3.2 | 0.00 | 0.94 | 0.94 | 85 | 1011.8 |
| 20260507163529 | 12 | 71 | 1.6 | 3.2 | 0.00 | 0.94 | 0.94 | 77 | 1012.0 |
| 20260507163022 | 12 | 71 | 1.6 | 3.2 | 0.00 | 0.94 | 0.94 | 68 | 1011.8 |
| 20260507162516 | 12 | 57 | 0.0 | 4.8 | 0.00 | 0.94 | 0.94 | 64 | 1012.1 |
| 20260507162016 | 12 | 74 | 0.0 | 4.8 | 0.00 | 0.94 | 0.94 | 63 | 1011.9 |
| 20260507161514 | 12 | 70 | 0.0 | 3.2 | 0.00 | 0.94 | 0.94 | 66 | 1011.7 |
| 20260507161012 | 12 | 61 | 0.0 | 3.2 | 0.00 | 0.94 | 0.94 | 66 | 1011.7 |
| 20260507160509 | 12 | 61 | 0.0 | 4.8 | 0.00 | 0.94 | 0.94 | 66 | 1011.8 |
| 20260507160010 | 12 | 21 | 1.6 | 4.8 | 0.00 | 0.94 | 0.94 | 68 | 1011.9 |
| 20260507155509 | 12 | 54 | 0.0 | 4.8 | 0.00 | 0.94 | 0.94 | 72 | 1011.8 |
| 20260507155006 | 12 | 28 | 0.0 | 3.2 | 0.00 | 0.94 | 0.94 | 73 | 1011.9 |
| 20260507154505 | 12 | 59 | 0.0 | 3.2 | 0.00 | 0.94 | 0.94 | 74 | 1011.9 |
| 20260507154007 | 12 | 76 | 0.0 | 3.2 | 0.00 | 0.94 | 0.94 | 71 | 1012.0 |
| 20260507153502 | 12 | 76 | 0.0 | 3.2 | 0.00 | 0.94 | 0.94 | 71 | 1012.0 |
| 20260507153000 | 12 | 89 | 0.0 | 3.2 | 0.00 | 0.94 | 0.94 | 70 | 1011.9 |
| 20260507152728 | 12 | 88 | 1.6 | 6.4 | 0.00 | 0.94 | 0.94 | 69 | 1011.9 |
| 20260507151956 | 12 | 105 | 1.6 | 6.4 | 0.00 | 0.94 | 0.94 | 70 | 1012.1 |
| 20260507151455 | 12 | 39 | 0.0 | 6.4 | 0.00 | 0.94 | 0.94 | 72 | 1012.0 |
| 20260507150951 | 12 | 67 | 1.6 | 4.8 | 0.00 | 0.94 | 0.94 | 72 | 1012.0 |
| 20260507150450 | 12 | 67 | 1.6 | 6.4 | 0.00 | 0.94 | 0.94 | 72 | 1012.0 |
| 20260507145951 | 12 | 99 | 0.0 | 6.4 | 0.00 | 0.94 | 0.94 | 71 | 1012.0 |
| 20260507145450 | 12 | 44 | 0.0 | 3.2 | 0.00 | 0.94 | 0.94 | 72 | 1012.1 |
| 20260507144949 | 12 | 44 | 0.0 | 4.8 | 0.00 | 0.97 | 0.94 | 69 | 1012.2 |
| 20260507144449 | 12 | 76 | 0.0 | 4.8 | 0.00 | 0.97 | 0.94 | 70 | 1012.3 |
| 20260507143951 | 12 | 73 | 1.6 | 4.8 | 0.00 | 0.97 | 0.94 | 73 | 1012.5 |
| 20260507143710 | 12 | 71 | 1.6 | 4.8 | 0.00 | 0.99 | 0.94 | 71 | 1012.6 |
| 20260507142948 | 12 | 53 | 0.0 | 4.8 | 0.00 | 1.02 | 0.94 | 72 | 1012.6 |
| 20260507142448 | 12 | 16 | 0.0 | 4.8 | 0.00 | 1.04 | 0.94 | 74 | 1012.4 |
| 20260507141948 | 12 | 65 | 1.6 | 4.8 | 0.00 | 1.07 | 0.94 | 74 | 1012.5 |
| 20260507141445 | 12 | 63 | 1.6 | 4.8 | 0.00 | 1.14 | 0.94 | 72 | 1012.6 |
| 20260507140946 | 12 | 0 | 1.6 | 6.4 | 0.03 | 1.17 | 0.94 | 72 | 1012.6 |
| 20260507140444 | 12 | 85 | 1.6 | 6.4 | 0.03 | 1.17 | 0.94 | 72 | 1012.7 |
| 20260507140211 | 12 | 74 | 1.6 | 4.8 | 0.03 | 1.17 | 0.94 | 75 | 1012.8 |
| 20260507135446 | 12 | 63 | 1.6 | 6.4 | 0.03 | 1.17 | 0.94 | 75 | 1012.8 |
| 20260507134945 | 12 | 115 | 1.6 | 6.4 | 0.03 | 1.17 | 0.94 | 75 | 1012.7 |
| 20260507134446 | 12 | 103 | 1.6 | 6.4 | 0.03 | 1.17 | 0.94 | 77 | 1012.6 |
| 20260507134205 | 12 | 24 | 1.6 | 6.4 | 0.03 | 1.17 | 0.94 | 79 | 1012.7 |
| 20260507133443 | 11 | 39 | 1.6 | 6.4 | 0.03 | 1.19 | 0.94 | 80 | 1012.8 |
| 20260507132943 | 11 | 76 | 1.6 | 6.4 | 0.03 | 1.19 | 0.94 | 80 | 1012.9 |
| 20260507132442 | 11 | 63 | 1.6 | 8.0 | 0.03 | 1.22 | 0.94 | 80 | 1012.8 |
| 20260507131943 | 11 | 32 | 1.6 | 8.0 | 0.03 | 1.22 | 0.94 | 82 | 1012.7 |
| 20260507131446 | 11 | 75 | 1.6 | 6.4 | 0.03 | 1.24 | 0.94 | 83 | 1012.7 |
| 20260507130938 | 11 | 41 | 1.6 | 6.4 | 0.00 | 1.24 | 0.91 | 84 | 1012.6 |
| 20260507130701 | 11 | 51 | 1.6 | 4.8 | 0.00 | 1.27 | 0.91 | 86 | 1012.7 |
| 20260507125928 | 11 | 88 | 1.6 | 9.7 | 0.00 | 1.27 | 0.91 | 86 | 1012.7 |
| 20260507125907 | 11 | 115 | 1.6 | 9.7 | 0.00 | 1.27 | 0.91 | 87 | 1012.6 |
| 20260507124914 | 12 | 5 | 1.6 | 6.4 | 0.00 | 1.30 | 0.91 | 89 | 1012.7 |
| 20260507124408 | 12 | 43 | 1.6 | 4.8 | 0.00 | 1.30 | 0.91 | 90 | 1012.6 |
| 20260507124345 | 12 | 130 | 1.6 | 8.0 | 0.00 | 1.30 | 0.91 | 91 | 1012.6 |
| 20260507123400 | 12 | 51 | 3.2 | 8.0 | 0.00 | 1.30 | 0.91 | 92 | 1012.2 |
| 20260507122903 | 12 | 44 | 1.6 | 8.0 | 0.00 | 1.30 | 0.91 | 92 | 1012.2 |
| 20260507122401 | 12 | 62 | 1.6 | 6.4 | 0.00 | 1.30 | 0.91 | 93 | 1012.3 |
| 20260507122355 | 12 | 69 | 1.6 | 4.8 | 0.00 | 1.30 | 0.91 | 93 | 1012.3 |
| 20260507121401 | 12 | 56 | 1.6 | 4.8 | 0.00 | 1.30 | 0.91 | 93 | 1012.4 |
| 20260507120901 | 12 | 102 | 1.6 | 3.2 | 0.00 | 1.30 | 0.91 | 93 | 1012.2 |
| 20260507120402 | 12 | 105 | 0.0 | 1.6 | 0.00 | 1.30 | 0.91 | 93 | 1012.1 |
| 20260507115901 | 12 | 61 | 0.0 | 3.2 | 0.00 | 1.30 | 0.91 | 93 | 1011.9 |
| 20260507115402 | 12 | 61 | 0.0 | 3.2 | 0.00 | 1.30 | 0.91 | 93 | 1012.1 |
| 20260507114857 | 12 | 105 | 0.0 | 4.8 | 0.00 | 1.30 | 0.91 | 93 | 1012.1 |
| 20260507114358 | 12 | 355 | 1.6 | 4.8 | 0.00 | 1.30 | 0.91 | 93 | 1012.1 |
| 20260507113858 | 12 | 57 | 0.0 | 3.2 | 0.00 | 1.30 | 0.91 | 93 | 1012.1 |
| 20260507113359 | 12 | 57 | 0.0 | 0.0 | 0.00 | 1.30 | 0.91 | 93 | 1012.1 |
| 20260507112858 | 12 | 57 | 0.0 | 0.0 | 0.00 | 1.30 | 0.91 | 93 | 1012.0 |
| 20260507112359 | 12 | 57 | 0.0 | 0.0 | 0.00 | 1.30 | 0.91 | 93 | 1011.6 |
| 20260507111857 | 12 | 57 | 0.0 | 1.6 | 0.00 | 1.30 | 0.91 | 93 | 1011.5 |
| 20260507111358 | 12 | 57 | 0.0 | 1.6 | 0.00 | 1.30 | 0.91 | 93 | 1011.8 |
| 20260507110857 | 12 | 57 | 0.0 | 1.6 | 0.00 | 1.30 | 0.91 | 93 | 1011.9 |
| 20260507110623 | 12 | 57 | 0.0 | 0.0 | 0.00 | 1.30 | 0.91 | 93 | 1011.9 |
| 20260507110117 | 12 | 57 | 0.0 | 0.0 | 0.00 | 1.30 | 0.91 | 93 | 1011.9 |
| 20260507105357 | 12 | 57 | 0.0 | 1.6 | 0.00 | 1.30 | 0.91 | 93 | 1011.8 |
| 20260507104857 | 12 | 57 | 0.0 | 1.6 | 0.00 | 1.30 | 0.91 | 93 | 1011.8 |
| 20260507104621 | 12 | 57 | 0.0 | 0.0 | 0.00 | 1.30 | 0.91 | 93 | 1012.0 |
| 20260507103855 | 12 | 57 | 0.0 | 1.6 | 0.00 | 1.30 | 0.91 | 93 | 1011.7 |
| 20260507103356 | 12 | 57 | 0.0 | 1.6 | 0.00 | 1.30 | 0.91 | 93 | 1011.7 |
| 20260507102856 | 12 | 57 | 0.0 | 1.6 | 0.00 | 1.30 | 0.91 | 93 | 1011.7 |
| 20260507102356 | 12 | 57 | 0.0 | 1.6 | 0.00 | 1.30 | 0.91 | 93 | 1011.6 |
| 20260507102123 | 12 | 57 | 0.0 | 0.0 | 0.00 | 1.30 | 0.91 | 92 | 1011.5 |
| 20260507101352 | 12 | 57 | 0.0 | 1.6 | 0.00 | 1.30 | 0.91 | 92 | 1011.5 |
| 20260507100853 | 12 | 57 | 0.0 | 1.6 | 0.00 | 1.30 | 0.91 | 92 | 1011.3 |
| 20260507100347 | 12 | 78 | 0.0 | 0.0 | 0.00 | 1.30 | 0.91 | 92 | 1011.4 |
| 20260507095842 | 12 | 78 | 0.0 | 0.0 | 0.00 | 1.30 | 0.91 | 92 | 1011.4 |
| 20260507095335 | 12 | 78 | 0.0 | 0.0 | 0.00 | 1.30 | 0.91 | 92 | 1011.3 |
| 20260507095044 | 12 | 78 | 0.0 | 0.0 | 0.00 | 1.30 | 0.91 | 92 | 1011.2 |
| 20260507094544 | 12 | 78 | 0.0 | 0.0 | 0.00 | 1.30 | 0.91 | 92 | 1011.3 |
| 20260507093818 | 12 | 78 | 0.0 | 0.0 | 0.00 | 1.30 | 0.91 | 92 | 1011.3 |
| 20260507093311 | 12 | 78 | 0.0 | 0.0 | 0.00 | 1.30 | 0.91 | 92 | 1011.4 |
| 20260507092805 | 12 | 78 | 0.0 | 0.0 | 0.00 | 1.30 | 0.91 | 92 | 1011.4 |
| 20260507092300 | 12 | 78 | 0.0 | 0.0 | 0.00 | 1.30 | 0.91 | 92 | 1011.3 |
| 20260507091753 | 12 | 56 | 0.0 | 0.0 | 0.00 | 1.30 | 0.91 | 92 | 1011.1 |
| 20260507091247 | 12 | 57 | 0.0 | 1.6 | 0.00 | 1.30 | 0.91 | 92 | 1011.1 |
| 20260507090741 | 12 | 56 | 0.0 | 1.6 | 0.00 | 1.30 | 0.91 | 92 | 1011.0 |
| 20260507090455 | 12 | 98 | 0.0 | 1.6 | 0.00 | 1.30 | 0.91 | 92 | 1010.8 |
| 20260507085954 | 12 | 98 | 0.0 | 1.6 | 0.00 | 1.30 | 0.91 | 92 | 1010.9 |
| 20260507085454 | 12 | 98 | 1.6 | 3.2 | 0.00 | 1.30 | 0.91 | 92 | 1010.9 |
| 20260507084716 | 12 | 98 | 1.6 | 3.2 | 0.00 | 1.30 | 0.91 | 92 | 1010.9 |
| 20260507084211 | 12 | 72 | 0.0 | 1.6 | 0.00 | 1.30 | 0.91 | 92 | 1011.0 |
| 20260507083706 | 12 | 72 | 0.0 | 1.6 | 0.00 | 1.30 | 0.91 | 92 | 1011.0 |
| 20260507083200 | 12 | 74 | 0.0 | 0.0 | 0.00 | 1.30 | 0.91 | 92 | 1011.0 |
| 20260507082653 | 12 | 74 | 0.0 | 0.0 | 0.00 | 1.30 | 0.91 | 92 | 1011.1 |
| 20260507082406 | 12 | 74 | 0.0 | 3.2 | 0.00 | 1.30 | 0.91 | 92 | 1011.2 |
| 20260507081906 | 12 | 74 | 0.0 | 3.2 | 0.00 | 1.30 | 0.91 | 92 | 1011.0 |
| 20260507081136 | 12 | 60 | 0.0 | 1.6 | 0.00 | 1.30 | 0.91 | 92 | 1011.1 |
| 20260507080629 | 12 | 60 | 0.0 | 6.4 | 0.00 | 1.30 | 0.91 | 92 | 1011.3 |
| 20260507080123 | 12 | 62 | 1.6 | 6.4 | 0.00 | 1.30 | 0.91 | 92 | 1011.0 |
| 20260507075617 | 12 | 51 | 1.6 | 6.4 | 0.00 | 1.30 | 0.91 | 92 | 1010.6 |
| 20260507075337 | 12 | 34 | 1.6 | 6.4 | 0.00 | 1.30 | 0.91 | 91 | 1010.5 |
| 20260507074607 | 12 | 55 | 1.6 | 8.0 | 0.00 | 1.30 | 0.91 | 92 | 1010.5 |
| 20260507074100 | 12 | 78 | 1.6 | 8.0 | 0.00 | 1.30 | 0.91 | 92 | 1010.4 |
| 20260507073553 | 12 | 15 | 1.6 | 9.7 | 0.00 | 1.30 | 0.91 | 92 | 1010.4 |
| 20260507073047 | 12 | 94 | 1.6 | 9.7 | 0.00 | 1.30 | 0.91 | 92 | 1010.4 |
| 20260507072542 | 12 | 32 | 0.0 | 4.8 | 0.00 | 1.30 | 0.91 | 92 | 1010.3 |
| 20260507072255 | 12 | 51 | 1.6 | 8.0 | 0.00 | 1.30 | 0.91 | 92 | 1010.2 |
| 20260507071530 | 12 | 46 | 1.6 | 8.0 | 0.00 | 1.30 | 0.91 | 92 | 1010.2 |
| 20260507071023 | 12 | 60 | 1.6 | 6.4 | 0.00 | 1.30 | 0.91 | 92 | 1010.4 |
| 20260507070517 | 13 | 63 | 1.6 | 8.0 | 0.00 | 1.30 | 0.91 | 92 | 1010.4 |
| 20260507070013 | 13 | 82 | 1.6 | 8.0 | 0.00 | 1.30 | 0.91 | 92 | 1010.4 |
| 20260507065505 | 13 | 14 | 1.6 | 4.8 | 0.00 | 1.30 | 0.91 | 91 | 1010.6 |
| 20260507064959 | 13 | 47 | 0.0 | 4.8 | 0.00 | 1.30 | 0.91 | 91 | 1010.4 |
| 20260507064453 | 13 | 92 | 1.6 | 4.8 | 0.00 | 1.30 | 0.91 | 91 | 1010.3 |
| 20260507063947 | 13 | 52 | 1.6 | 8.0 | 0.00 | 1.30 | 0.91 | 91 | 1010.2 |
| 20260507063441 | 13 | 55 | 1.6 | 8.0 | 0.03 | 1.30 | 0.91 | 91 | 1010.3 |
| 20260507062935 | 13 | 50 | 3.2 | 8.0 | 0.03 | 1.30 | 0.91 | 91 | 1010.4 |
| 20260507062429 | 13 | 321 | 3.2 | 9.7 | 0.05 | 1.30 | 0.91 | 91 | 1010.4 |
| 20260507061925 | 13 | 82 | 3.2 | 9.7 | 0.05 | 1.30 | 0.91 | 91 | 1010.7 |
| 20260507061418 | 13 | 36 | 3.2 | 12.9 | 0.10 | 1.30 | 0.91 | 91 | 1010.6 |
| 20260507060913 | 13 | 92 | 4.8 | 12.9 | 0.13 | 1.30 | 0.91 | 91 | 1010.3 |
| 20260507060405 | 13 | 295 | 3.2 | 12.9 | 0.13 | 1.30 | 0.91 | 91 | 1010.2 |
| 20260507055900 | 13 | 40 | 3.2 | 9.7 | 0.13 | 1.30 | 0.91 | 91 | 1010.1 |
| 20260507055615 | 13 | 53 | 3.2 | 11.3 | 0.15 | 1.30 | 0.91 | 91 | 1010.0 |
| 20260507054847 | 14 | 62 | 3.2 | 11.3 | 0.15 | 1.30 | 0.91 | 90 | 1009.8 |
| 20260507054610 | 14 | 25 | 3.2 | 9.7 | 0.15 | 1.30 | 0.91 | 90 | 1009.4 |
| 20260507053835 | 14 | 20 | 3.2 | 9.7 | 0.15 | 1.30 | 0.91 | 90 | 1009.6 |
| 20260507053336 | 14 | 70 | 1.6 | 6.4 | 0.15 | 1.27 | 0.89 | 90 | 1009.8 |
| 20260507052836 | 14 | 80 | 1.6 | 6.4 | 0.20 | 1.27 | 0.89 | 90 | 1010.0 |
| 20260507052334 | 15 | 117 | 1.6 | 3.2 | 0.20 | 1.24 | 0.86 | 90 | 1009.5 |
| 20260507051835 | 15 | 82 | 0.0 | 3.2 | 0.25 | 1.22 | 0.84 | 89 | 1010.1 |
| 20260507051335 | 15 | 28 | 0.0 | 3.2 | 0.41 | 1.19 | 0.81 | 89 | 1010.5 |
| 20260507050833 | 15 | 21 | 1.6 | 3.2 | 0.66 | 1.17 | 0.79 | 89 | 1010.3 |
| 20260507050330 | 15 | 53 | 0.0 | 3.2 | 0.79 | 1.17 | 0.79 | 89 | 1010.4 |
| 20260507045830 | 15 | 69 | 0.0 | 3.2 | 0.79 | 1.17 | 0.79 | 89 | 1010.5 |
| 20260507045553 | 15 | 187 | 1.6 | 6.4 | 0.76 | 1.14 | 0.76 | 88 | 1010.1 |
| 20260507044825 | 15 | 9 | 1.6 | 14.5 | 0.76 | 1.14 | 0.76 | 88 | 1010.0 |
| 20260507044325 | 15 | 355 | 3.2 | 14.5 | 0.76 | 1.14 | 0.76 | 88 | 1010.0 |
| 20260507043823 | 16 | 100 | 1.6 | 9.7 | 0.76 | 1.14 | 0.76 | 87 | 1010.1 |
| 20260507043323 | 16 | 279 | 1.6 | 6.4 | 0.74 | 1.12 | 0.74 | 87 | 1010.3 |
| 20260507042823 | 16 | 94 | 3.2 | 8.0 | 0.69 | 1.07 | 0.71 | 87 | 1010.4 |
| 20260507042323 | 16 | 47 | 3.2 | 8.0 | 0.66 | 1.04 | 0.66 | 86 | 1010.9 |
| 20260507041823 | 17 | 244 | 3.2 | 8.0 | 0.56 | 0.94 | 0.58 | 86 | 1010.9 |
| 20260507041321 | 17 | 209 | 3.2 | 8.0 | 0.36 | 0.74 | 0.41 | 85 | 1010.9 |
| 20260507040818 | 17 | 132 | 1.6 | 8.0 | 0.13 | 0.51 | 0.13 | 84 | 1010.2 |
| 20260507040319 | 17 | 36 | 1.6 | 4.8 | 0.00 | 0.38 | 0.00 | 84 | 1009.9 |
| 20260507040036 | 17 | 79 | 1.6 | 6.4 | 0.00 | 0.38 | 0.38 | 83 | 1009.3 |
| 20260507035307 | 17 | 71 | 1.6 | 6.4 | 0.00 | 0.38 | 0.38 | 83 | 1009.4 |
| 20260507034801 | 17 | 78 | 1.6 | 6.4 | 0.00 | 0.38 | 0.38 | 83 | 1009.5 |
| 20260507034256 | 17 | 24 | 1.6 | 6.4 | 0.00 | 0.38 | 0.38 | 82 | 1009.6 |
| 20260507033750 | 17 | 16 | 3.2 | 8.0 | 0.00 | 0.38 | 0.38 | 83 | 1009.5 |
| 20260507033243 | 17 | 57 | 3.2 | 8.0 | 0.00 | 0.38 | 0.38 | 83 | 1009.5 |
| 20260507032737 | 17 | 86 | 3.2 | 9.7 | 0.00 | 0.38 | 0.38 | 83 | 1009.5 |
| 20260507032231 | 17 | 51 | 1.6 | 11.3 | 0.00 | 0.38 | 0.38 | 83 | 1009.7 |
| 20260507031725 | 18 | 12 | 1.6 | 11.3 | 0.00 | 0.38 | 0.38 | 84 | 1009.7 |
| 20260507031220 | 18 | 308 | 1.6 | 4.8 | 0.00 | 0.38 | 0.38 | 84 | 1009.8 |
| 20260507030713 | 18 | 28 | 3.2 | 4.8 | 0.00 | 0.38 | 0.38 | 85 | 1009.9 |
| 20260507030207 | 18 | 57 | 3.2 | 6.4 | 0.00 | 0.38 | 0.38 | 86 | 1009.7 |
| 20260507025702 | 18 | 57 | 3.2 | 12.9 | 0.00 | 0.38 | 0.38 | 87 | 1009.2 |
| 20260507025155 | 18 | 22 | 1.6 | 12.9 | 0.00 | 0.38 | 0.38 | 88 | 1009.0 |
| 20260507024649 | 18 | 19 | 3.2 | 4.8 | 0.00 | 0.38 | 0.38 | 88 | 1009.3 |
| 20260507024143 | 18 | 61 | 3.2 | 8.0 | 0.00 | 0.38 | 0.38 | 88 | 1009.4 |
| 20260507023640 | 18 | 44 | 0.0 | 8.0 | 0.00 | 0.38 | 0.38 | 88 | 1009.5 |
| 20260507023403 | 18 | 36 | 0.0 | 0.0 | 0.00 | 0.38 | 0.38 | 88 | 1009.6 |
| 20260507022915 | 18 | 36 | 0.0 | 0.0 | 0.00 | 0.38 | 0.38 | 87 | 1009.3 |
| 20260507022142 | 18 | 350 | 0.0 | 0.0 | 0.00 | 0.38 | 0.38 | 87 | 1009.2 |
| 20260507021642 | 18 | 350 | 0.0 | 0.0 | 0.00 | 0.38 | 0.38 | 87 | 1009.2 |
| 20260507021141 | 18 | 234 | 0.0 | 0.0 | 0.00 | 0.38 | 0.38 | 87 | 1008.9 |
| 20260507020641 | 18 | 234 | 0.0 | 1.6 | 0.00 | 0.38 | 0.38 | 87 | 1008.6 |
| 20260507020140 | 18 | 234 | 0.0 | 1.6 | 0.00 | 0.38 | 0.38 | 87 | 1008.4 |
| 20260507015637 | 18 | 234 | 0.0 | 0.0 | 0.00 | 0.38 | 0.38 | 86 | 1008.7 |
| 20260507015140 | 18 | 234 | 0.0 | 0.0 | 0.00 | 0.38 | 0.38 | 86 | 1008.8 |
| 20260507014640 | 18 | 234 | 0.0 | 0.0 | 0.00 | 0.38 | 0.38 | 86 | 1008.9 |
| 20260507014137 | 18 | 234 | 0.0 | 0.0 | 0.00 | 0.38 | 0.38 | 86 | 1008.9 |
| 20260507013634 | 18 | 234 | 0.0 | 0.0 | 0.00 | 0.38 | 0.38 | 85 | 1009.1 |
| 20260507013131 | 18 | 234 | 0.0 | 0.0 | 0.00 | 0.38 | 0.38 | 85 | 1009.2 |
| 20260507012629 | 18 | 234 | 0.0 | 0.0 | 0.00 | 0.38 | 0.38 | 85 | 1009.0 |
| 20260507012131 | 18 | 234 | 0.0 | 0.0 | 0.00 | 0.38 | 0.38 | 85 | 1009.1 |
| 20260507011627 | 19 | 234 | 0.0 | 0.0 | 0.00 | 0.38 | 0.38 | 84 | 1009.2 |
| 20260507011126 | 19 | 234 | 0.0 | 0.0 | 0.00 | 0.38 | 0.38 | 84 | 1009.2 |
| 20260507010623 | 19 | 234 | 0.0 | 0.0 | 0.00 | 0.38 | 0.38 | 83 | 1009.0 |
| 20260507010354 | 19 | 234 | 0.0 | 0.0 | 0.00 | 0.38 | 0.38 | 83 | 1009.0 |
| 20260507005836 | 19 | 234 | 0.0 | 0.0 | 0.00 | 0.38 | 0.38 | 83 | 1009.1 |
| 20260507005110 | 19 | 234 | 0.0 | 0.0 | 0.00 | 0.38 | 0.38 | 82 | 1009.1 |
| 20260507004603 | 19 | 234 | 0.0 | 0.0 | 0.00 | 0.38 | 0.38 | 82 | 1009.1 |
| 20260507004057 | 20 | 234 | 0.0 | 0.0 | 0.00 | 0.38 | 0.38 | 82 | 1009.0 |
| 20260507003551 | 20 | 234 | 0.0 | 0.0 | 0.00 | 0.38 | 0.38 | 81 | 1008.8 |
| 20260507003045 | 20 | 234 | 0.0 | 0.0 | 0.00 | 0.38 | 0.38 | 81 | 1008.6 |
| 20260507002539 | 20 | 234 | 0.0 | 3.2 | 0.00 | 0.38 | 0.38 | 81 | 1008.6 |
| 20260507002254 | 20 | 234 | 0.0 | 4.8 | 0.00 | 0.38 | 0.38 | 81 | 1008.6 |
| 20260507001534 | 20 | 240 | 0.0 | 4.8 | 0.00 | 0.38 | 0.38 | 81 | 1008.7 |
| 20260507001035 | 20 | 269 | 0.0 | 3.2 | 0.00 | 0.38 | 0.38 | 81 | 1008.6 |
| 20260507000532 | 20 | 271 | 1.6 | 9.7 | 0.00 | 0.38 | 0.38 | 81 | 1008.6 |
| 20260507000306 | 20 | 272 | 1.6 | 9.7 | 0.00 | 0.38 | 0.38 | 80 | 1008.5 |
| 20260506235532 | 20 | 229 | 1.6 | 6.4 | 0.00 | 0.38 | 0.38 | 80 | 1008.4 |
| 20260506235032 | 20 | 225 | 1.6 | 8.0 | 0.00 | 0.38 | 0.38 | 80 | 1008.2 |
| 20260506234532 | 20 | 159 | 1.6 | 9.7 | 0.00 | 0.38 | 0.38 | 79 | 1008.1 |
| 20260506234032 | 20 | 221 | 1.6 | 9.7 | 0.00 | 0.38 | 0.38 | 80 | 1008.1 |
| 20260506233532 | 20 | 299 | 1.6 | 11.3 | 0.00 | 0.38 | 0.38 | 79 | 1008.1 |
| 20260506233514 | 20 | 117 | 1.6 | 11.3 | 0.00 | 0.38 | 0.38 | 79 | 1008.0 |
| 20260506232527 | 20 | 246 | 1.6 | 9.7 | 0.00 | 0.38 | 0.38 | 79 | 1007.9 |
| 20260506232029 | 21 | 227 | 1.6 | 9.7 | 0.00 | 0.38 | 0.38 | 79 | 1007.9 |
| 20260506231746 | 21 | 126 | 1.6 | 9.7 | 0.00 | 0.38 | 0.38 | 79 | 1008.0 |
| 20260506231029 | 21 | 260 | 1.6 | 6.4 | 0.00 | 0.38 | 0.38 | 79 | 1008.0 |
| 20260506230801 | 21 | 234 | 3.2 | 9.7 | 0.00 | 0.38 | 0.38 | 78 | 1008.1 |
| 20260506230027 | 21 | 251 | 3.2 | 9.7 | 0.00 | 0.38 | 0.38 | 79 | 1007.9 |
| 20260506225529 | 21 | 254 | 3.2 | 12.9 | 0.00 | 0.38 | 0.38 | 78 | 1007.9 |
| 20260506225028 | 21 | 198 | 3.2 | 12.9 | 0.00 | 0.38 | 0.38 | 79 | 1007.9 |
| 20260506224529 | 21 | 218 | 1.6 | 12.9 | 0.00 | 0.38 | 0.38 | 79 | 1008.0 |
| 20260506224025 | 21 | 171 | 1.6 | 9.7 | 0.00 | 0.38 | 0.38 | 79 | 1007.9 |
| 20260506223523 | 21 | 248 | 1.6 | 9.7 | 0.00 | 0.38 | 0.38 | 80 | 1007.9 |
| 20260506223025 | 21 | 261 | 1.6 | 4.8 | 0.00 | 0.38 | 0.38 | 81 | 1007.9 |
| 20260506222525 | 21 | 287 | 1.6 | 6.4 | 0.00 | 0.38 | 0.38 | 81 | 1008.0 |
| 20260506222024 | 21 | 223 | 1.6 | 9.7 | 0.00 | 0.38 | 0.38 | 81 | 1008.0 |
| 20260506221524 | 21 | 210 | 0.0 | 9.7 | 0.00 | 0.38 | 0.38 | 81 | 1008.0 |
| 20260506221249 | 21 | 209 | 0.0 | 6.4 | 0.00 | 0.38 | 0.38 | 80 | 1007.9 |
| 20260506220524 | 21 | 209 | 1.6 | 6.4 | 0.00 | 0.38 | 0.38 | 81 | 1007.8 |
| 20260506220239 | 21 | 275 | 1.6 | 6.4 | 0.00 | 0.38 | 0.38 | 80 | 1007.8 |
| 20260506215518 | 20 | 228 | 1.6 | 8.0 | 0.00 | 0.38 | 0.38 | 81 | 1008.0 |
| 20260506215016 | 20 | 227 | 1.6 | 8.0 | 0.00 | 0.38 | 0.38 | 81 | 1008.0 |
| 20260506214516 | 20 | 194 | 1.6 | 8.0 | 0.00 | 0.38 | 0.38 | 80 | 1007.9 |
| 20260506214010 | 20 | 126 | 1.6 | 8.0 | 0.00 | 0.38 | 0.38 | 80 | 1007.9 |
| 20260506213511 | 20 | 215 | 1.6 | 4.8 | 0.00 | 0.38 | 0.38 | 81 | 1008.0 |
| 20260506213008 | 20 | 84 | 3.2 | 9.7 | 0.00 | 0.38 | 0.38 | 80 | 1008.1 |
| 20260506212505 | 20 | 208 | 1.6 | 9.7 | 0.00 | 0.38 | 0.38 | 79 | 1008.1 |
| 20260506212005 | 20 | 263 | 1.6 | 4.8 | 0.00 | 0.38 | 0.38 | 81 | 1008.0 |
| 20260506211503 | 20 | 90 | 0.0 | 4.8 | 0.00 | 0.38 | 0.38 | 80 | 1007.9 |
| 20260506211004 | 20 | 80 | 1.6 | 8.0 | 0.00 | 0.38 | 0.38 | 80 | 1007.8 |
| 20260506210503 | 20 | 262 | 3.2 | 8.0 | 0.00 | 0.38 | 0.38 | 81 | 1007.9 |
| 20260506210003 | 20 | 58 | 1.6 | 6.4 | 0.00 | 0.38 | 0.38 | 82 | 1007.7 |
| 20260506205726 | 20 | 275 | 1.6 | 9.7 | 0.00 | 0.38 | 0.38 | 82 | 1007.8 |
| 20260506205003 | 20 | 249 | 3.2 | 14.5 | 0.00 | 0.38 | 0.38 | 81 | 1007.8 |
| 20260506204734 | 20 | 212 | 3.2 | 14.5 | 0.00 | 0.38 | 0.38 | 82 | 1007.7 |
| 20260506204221 | 20 | 192 | 3.2 | 12.9 | 0.00 | 0.38 | 0.38 | 81 | 1007.9 |
| 20260506203459 | 20 | 232 | 1.6 | 11.3 | 0.00 | 0.38 | 0.38 | 82 | 1007.7 |
| 20260506203000 | 20 | 300 | 3.2 | 9.7 | 0.00 | 0.38 | 0.38 | 82 | 1007.8 |
| 20260506202725 | 20 | 173 | 3.2 | 12.9 | 0.00 | 0.38 | 0.38 | 82 | 1007.9 |
| 20260506202000 | 20 | 142 | 3.2 | 12.9 | 0.00 | 0.38 | 0.38 | 81 | 1007.8 |
| 20260506201459 | 20 | 154 | 1.6 | 8.0 | 0.00 | 0.38 | 0.38 | 81 | 1007.7 |
| 20260506201000 | 20 | 249 | 1.6 | 6.4 | 0.00 | 0.38 | 0.38 | 84 | 1007.9 |
| 20260506200453 | 20 | 280 | 1.6 | 6.4 | 0.00 | 0.38 | 0.38 | 81 | 1007.8 |
| 20260506200440 | 20 | 297 | 3.2 | 16.1 | 0.00 | 0.38 | 0.38 | 82 | 1007.8 |
| 20260506195442 | 20 | 118 | 3.2 | 16.1 | 0.00 | 0.38 | 0.38 | 83 | 1007.9 |
| 20260506194936 | 20 | 234 | 3.2 | 8.0 | 0.00 | 0.38 | 0.38 | 81 | 1007.8 |
| 20260506194430 | 19 | 121 | 3.2 | 9.7 | 0.00 | 0.38 | 0.38 | 83 | 1007.8 |
| 20260506193922 | 19 | 270 | 3.2 | 14.5 | 0.00 | 0.38 | 0.38 | 83 | 1008.0 |
| 20260506193417 | 19 | 128 | 3.2 | 14.5 | 0.00 | 0.38 | 0.38 | 84 | 1008.0 |
| 20260506192910 | 19 | 35 | 3.2 | 14.5 | 0.00 | 0.38 | 0.38 | 84 | 1008.0 |
| 20260506192404 | 18 | 331 | 4.8 | 16.1 | 0.00 | 0.38 | 0.38 | 85 | 1008.0 |
| 20260506191858 | 18 | 294 | 4.8 | 16.1 | 0.00 | 0.38 | 0.38 | 84 | 1008.2 |
| 20260506191352 | 18 | 278 | 3.2 | 11.3 | 0.00 | 0.38 | 0.38 | 84 | 1008.1 |
| 20260506191111 | 18 | 237 | 3.2 | 16.1 | 0.00 | 0.38 | 0.38 | 84 | 1008.5 |
| 20260506190339 | 18 | 250 | 3.2 | 16.1 | 0.00 | 0.38 | 0.38 | 85 | 1008.5 |
| 20260506185550 | 18 | 225 | 3.2 | 14.5 | 0.00 | 0.38 | 0.38 | 85 | 1008.6 |
| 20260506184822 | 18 | 271 | 3.2 | 11.3 | 0.00 | 0.38 | 0.38 | 84 | 1008.7 |
| 20260506184316 | 18 | 230 | 3.2 | 6.4 | 0.00 | 0.38 | 0.38 | 85 | 1008.8 |
| 20260506183811 | 18 | 15 | 3.2 | 11.3 | 0.00 | 0.38 | 0.38 | 86 | 1008.7 |